COSMOS 1459

Satellite information

Favourite Embed

Satellite Type and Status

PAYLOADIN ORBIT

Key statistics

Satellite COSMOS 1459 at a glance.

Uptime

15466

Days in orbit

Revolutions

≈ 13.8

Per day

Orbit

LEO

Low Earth Orbit

Inclination

83.0

Latest

Satellite identification and parameters

Extended collection of information and parameters for COSMOS 1459.

Object identification

Identified? True

Debris? False

Object name: COSMOS 1459

International designator: 1983-042A

Object number (NORAD): 14057

Object ID (CCSDS): 14057

Country: COMMONWEALTH OF INDEPENDENT STATES (CIS)

Current information (Y/N): Y

RCS size: LARGE

Orbital parameters

Period: 104.591 minutes

Inclination: 82.9743 deg

SMA: 7353.428 km

Apoapsis: 1010.615 km

Periapsis: 939.972 km

RAAN: 29.423 deg

Eccentricy: 0.00480344

Argument of periapsis: 252.7902 deg

Mean anomaly: 106.7995 deg

Mean motion: 13.76790805 rev/day

Mean motion (dot): 0.00000071 rev/day2

B* drag term: 0.000056806961 1/REarth

Two-line elements (TLE)

Creation date: Sept. 7, 2025, 3:09 a.m.

Reference frame: TEME

Reference center: EARTH

Epoch: Sept. 6, 2025, 9:07 p.m. UTC

TLE line 0: 0 COSMOS 1459

TLE line 1: 1 14057U 83042A 25249.87986993 .00000071 00000-0 56807-4 0 9993

TLE line 2: 2 14057 82.9743 29.4230 0048034 252.7902 106.7995 13.76790805126752

Live tracking on map

Real-time ground track for satellite COSMOS 1459.

In-orbit conjunctions

There are no conjunctions computed for COSMOS 1459, at the moment. Check back to stay up to date, as we update our databases every day.

Go to all conjunctions

Associated space launch

Navigation satellite providing location information for the Tsiklon-B navigation system

COSMOS 1459 was lifted into orbit during the mission ‘Kosmos-3M | Parus 38’, on board a Kosmos-3M space rocket.

The launch took place on May 6, 1983, 3 a.m. from 132/2.

For more information about the launch, click the button.

Launch to space Kosmos-3M | Parus 38
Kosmos-3M | Parus 38

Agency: N/A

Status: Launch Successful

Launch date: May 6, 1983, 3 a.m. UTC

Rocket: Kosmos-3M

Launch pad: 132/2

Location: Plesetsk Cosmodrome, Russian Federation

...

Latest news about this satellite

There are no fresh news available about this satellite. Check back as we update our databases every day.


Newsletter sign-up

Weekly statistics, charts and insights to help you stay on top of the space industry.